Regional Weather Roundup
Issued by NWS

Home | Current Version | Previous Version | Graphics & Text | Print | Product List | Glossary On
Versions: 1 2 3 4 5 6 7 8 9 10 11 12 13 14 15 16 17 18 19 20 21 22 23 24 25 26 27 28 29 30 31 32 33 34 35 36 37 38 39 40 41 42 43 44 45 46 47 48 49 50
000
ASUS45 KBOU 300307
RWRCO

WEATHER ROUNDUP FOR COLORADO
NATIONAL WEATHER SERVICE DENVER/BOULDER CO
900 PM MDT MON SEP 29 2014

NOTE: "FAIR" INDICATES FEW OR NO CLOUDS BELOW 12000 FEET WITH NO
SIGNIFICANT WEATHER AND/OR OBSTRUCTIONS TO VISIBILITY.

COZ001>005-013-030-031-300400-
...NORTHWEST COLORADO...

CITY           SKY/WX    TMP DP  RH WIND       PRES   REMARKS
CRAIG          CLOUDY    48  37  65 SW12      29.99R
HAYDEN         CLOUDY    45  37  76 CALM      29.99F
MEEKER         MOCLDY    42  38  85 CALM      30.04R
MOUNT WERNER   NOT AVBL
STEAMBOAT SPGS CLOUDY    41  38  91 E5        30.01F
WALDEN         CLOUDY    37  36  93 S6        30.00R
$$

COZ006>008-011-300400-
...WEST CENTRAL VALLEYS...

CITY           SKY/WX    TMP DP  RH WIND       PRES   REMARKS
GRAND JUNCTION CLOUDY    47  45  93 E7        30.04R
MONTROSE       MOCLDY    46  44  93 E3        30.09R
EAGLE          CLOUDY    43  43 100 E3        30.06S
RIFLE          MOCLDY    46  43  89 CALM      30.03S
DELTA          RAIN      50  45  81 N5        30.07R
NUCLA          MOCLDY    50  43  76 E3        30.11R
$$

COZ017>023-064>068-300400-
...SOUTHWEST COLORADO...

CITY           SKY/WX    TMP DP  RH WIND       PRES   REMARKS
DURANGO        MOCLDY    47  36  65 W7        30.10R
CORTEZ         CLEAR     50  42  74 CALM      30.08R
PAGOSA SPRINGS MOCLDY    39  39  99 CALM      30.14R
TELLURIDE      NOT AVBL
WOLF CREEK PAS HVY SNOW  28  28 100 SW30G43   30.20R VSB<1/4 WCI  13
$$

COZ009-010-012-014-032>034-037-058>063-300400-
...CENTRAL COLORADO...

CITY           SKY/WX    TMP DP  RH WIND       PRES   REMARKS
ASPEN          CLOUDY    41  36  82 CALM      30.07R
BUENA VISTA    MOCLDY    46  28  49 W22G30    30.01R
COPPER MTN     LGT SNOW  32  28  86 SW13      30.14R WCI  22
BERTHOUD PASS  CLOUDY    23  21  93 MISG      30.09R
COTTONWOOD PAS MOCLDY    41  28  60 W18G33    30.06R
GUNNISON       CLOUDY    43  34  70 CALM      30.11R
KREMMLING      RAIN      37  34  87 W9        30.04S
LEADVILLE      CLOUDY    33  29  85 N12       30.08R WCI  24
MONARCH PASS   FOG       28  27  93 MISG      30.25R VSB<1/4
SALIDA         MOCLDY    47  32  55 SW10G20   30.10R
SUNLIGHT       CLOUDY    32  32 100 CALM      30.15R FOG
WILKERSON PASS NOT AVBL
$$

COZ069>075-300400-
...SAN LUIS VALLEY/SANGRE DE CRISTO MOUNTAINS...

CITY           SKY/WX    TMP DP  RH WIND       PRES   REMARKS
ALAMOSA        CLEAR     43  34  70 W8        30.06R
LA VETA PASS   MOCLDY    34  32  93 S14G24    30.12R WCI  24
SAGUACHE       MOCLDY    41  36  81 NW8       30.08R
$$

COZ035-036-038>040-300400-
...NORTHERN COLORADO FRONT RANGE...

CITY           SKY/WX    TMP DP  RH WIND       PRES   REMARKS
DENVER INTL AP CLOUDY    50  45  83 N22       29.85R
DMNS CITY PARK   N/A     50  45  82 W6G17     29.87R
AURORA         CLOUDY    48  48 100 N20G28    29.87R
FRONT RANGE AP NOT AVBL
ERIE MUNI ARPT RAIN      50  46  86 NW13G18   29.85R
BOULDER MUN AP LGT RAIN  50  48  93 N6        29.84R
CENTENNIAL     TSTM      50  45  83 N14G22    29.88R
BROOMFIELD     LGT RAIN  50  46  87 NW7       29.88R
FORT COLLINS   CLOUDY    48  45  87 N14G21    29.87S
LONGMONT       LGT RAIN  53  47  79 N9        29.85R
$$

COZ041-046-047-076>085-087-088-300400-
...PIKES PEAK/PALMER DIVIDE AND SOUTHERN FOOTHILLS...

CITY           SKY/WX    TMP DP  RH WIND       PRES   REMARKS
COLO. SPRINGS  PTCLDY    52  39  61 W7        29.90R
A. F. ACADEMY  MOCLDY    55  28  36 W7G17     29.91R
ELLICOTT       NOT AVBL
FALCON         LGT RAIN  49  40  72 W3        29.94R
FORT CARSON    PTCLDY    53  35  50 SW7       29.90R
LIMON          CLOUDY    51  49  92 SW6       29.88R
MONUMENT HILL  DRIZZLE   45  39  81 SW14      29.91S
TRINIDAD       CLEAR     51  41  68 N6        29.94R
$$

COZ042>045-048>051-090-091-300400-
...NORTHEAST COLORADO...

CITY           SKY/WX    TMP DP  RH WIND       PRES   REMARKS
GREELEY ARPT   CLOUDY    48  43  81 N24G36    29.84F
AKRON          LGT RAIN  54  53  97 N12       29.76F
BURLINGTON     CLOUDY    56  54  93 SE5       29.85F
WRAY           HVY RAIN  59  59 100 SW9       29.83R
STERLING       LGT RAIN  57  55  94 NW28G33   29.73F
HOLYOKE        HVY RAIN  59  55  88 S3        29.78S
FORT MORGAN    CLOUDY    54  51  89 N13       29.79R
$$

COZ086-089-092>099-300400-
...SOUTHEAST COLORADO...

CITY           SKY/WX    TMP DP  RH WIND       PRES   REMARKS
PUEBLO         CLEAR     57  40  52 W14       29.86R
LA JUNTA       CLEAR     58  45  62 MISG      29.84R
LAMAR          CLOUDY    58  55  90 S15       29.83F
SPRINGFIELD      N/A     57  54  89 S13       29.93R
$$



USA.gov is the U.S. government's official web portal to all federal, state and local government web resources and services.